Skip Page Navigation
NASA JPL Caltech
NASA Logo - Jet Propulsion Laboratory + View the NASA Portal
+ Near-Earth Object (NEO) Program
Search JPL
JPL Home Earth Solar System Stars & Galaxies Technology
JPL Solar System Dynamics
BODIES ORBITS EPHEMERIDES TOOLS PHYSICAL DATA DISCOVERY FAQ SITE MAP
JPL Small-Body Database Browser
Search: [ help ]  
29636 (1998 VH6)
Classification: Main-belt Asteroid          SPK-ID: 2029636
Ephemeris | Orbit Diagram | Orbital Elements | Physical Parameters | Discovery Circumstances ]

[ show orbit diagram ]
Orbital Elements at Epoch 2457400.5 (2016-Jan-13.0) TDB
Reference: JPL 15 (heliocentric ecliptic J2000)
 Element Value Uncertainty (1-sigma)   Units 
e .09952532644975892 5.5114e-08  
a 2.301564475015072 1.3814e-08 au
q 2.072500519294029 1.2961e-07 au
i 9.428458218708139 8.0299e-06 deg
node 24.56665012144851 3.1139e-05 deg
peri 68.69887266783354 5.313e-05 deg
M 292.6724973520216 4.2585e-05 deg
tp 2457639.019093464455
(2016-Sep-07.51909346)
0.00015177 JED
period 1275.361037764293
3.49
1.1482e-05
3.144e-08
d
yr
n .2822730108103975 2.5413e-09 deg/d
Q 2.530628430736115 1.5189e-08 au
  Orbit Determination Parameters
   # obs. used (total)      692  
   data-arc span      8770 days (24.01 yr)  
   first obs. used      1991-11-28  
   last obs. used      2015-12-02  
   planetary ephem.      DE431  
   SB-pert. ephem.      SB431-BIG16  
   condition code      0  
   fit RMS      .54663  
   data source      ORB  
   producer      Otto Matic  
   solution date      2016-Jan-04 14:10:32  

Additional Information
 Earth MOID = 1.10908 au 
 Jupiter MOID = 2.64005 au 
 T_jup = 3.566 
[ show covariance matrix ]

Ephemeris | Orbit Diagram | Orbital Elements | Physical Parameters | Discovery Circumstances ]

Physical Parameter Table
Parameter Symbol Value Units Sigma Reference Notes
absolute magnitude H 15.0 mag n/a MPO296368  

29636 (1998 VH6)          Discovered 1998-Nov-11 by Shimizu, Y., Urata, T. at Nachi-Katsuura
Reference: 20011002/Numbers.arcLast Updated: 2004-04-19

Alternate Designations
 1998 VH6 = 2000 GJ70 
Ephemeris | Orbit Diagram | Orbital Elements | Physical Parameters | Discovery Circumstances ]
ABOUT SSD CREDITS/AWARDS PRIVACY/COPYRIGHT GLOSSARY LINKS
FirstGov 2016-Feb-13 15:15 UT
(server date/time)  
NASA Home Page
Site Manager:   Ryan S. Park
Webmaster  Alan B. Chamberlin